Regional Weather Roundup
Issued by NWS

Home | Current Version | Previous Version | Text Only | Print | Product List | Glossary Off
Versions: 1 2 3 4 5 6 7 8 9 10 11 12 13 14 15 16 17 18 19 20 21 22 23 24 25 26 27

000
ASUS45 KSLC 250610
RWRUT

UTAH REGIONAL WEATHER ROUNDUP
NATIONAL WEATHER SERVICE SALT LAKE CITY UT
1200 AM MDT WED MAY 25 2016

UTZ001>011-023>025-250700-

NORTHERN UTAH

CITY           SKY/WX    TMP DP  RH WIND       PRES   REMARKS
BRIGHAM CITY     N/A     49  42  78 CALM      29.94S
HILL AFB       LGT RAIN  52  39  62 E10       29.95R
LOGAN          MOCLDY    47  42  83 NE3       29.95R
OGDEN          CLOUDY    54  39  57 S9        29.93R
PROVO AIRPORT  MOCLDY    52  36  54 CALM      29.96S
SALT LAKE CITY PTCLDY    57  40  52 S10       29.94R
VERNAL         CLOUDY    56  32  40 SW7       29.96R
WENDOVER       CLEAR     54  36  50 NW16G24   29.95S
HEBER CITY     MOCLDY    43  37  81 S5        29.99S
WEST JORDAN    PTCLDY    52  39  62 S9        29.96R

$$

UTZ012>022-026-027-250700-

SOUTHERN/CENTRAL UTAH

CITY           SKY/WX    TMP DP  RH WIND       PRES   REMARKS
BLANDING       CLEAR     57  15  19 W9        30.08R
BRYCE CANYON   CLEAR     34  23  64 W9        30.10R WCI  27
CEDAR CITY     PTCLDY    47  26  44 S7        30.01R
DELTA          MOCLDY    46  41  81 CALM      29.96R
HANKSVILLE     CLEAR     61  27  27 W14       29.96R
MILFORD        PTCLDY    50  25  37 S10       29.98R
MOAB/CYNLANDS  PTCLDY    60  28  29 W9        29.93R
PRICE          PTCLDY    48  27  44 NW7       29.99R
ST GEORGE      MOCLDY    63  27  25 SE5       29.94S

$$

REGIONAL REPORTS     COLORADO/ARIZONA

CITY           SKY/WX    TMP DP  RH WIND       PRES   REMARKS
CRAIG, CO      PTCLDY    45  33  63 SE6       30.01R
GRAND JUNCTION CLEAR     55  25  31 N5        29.91R
RIFLE          CLOUDY    63  24  22 N6        29.95R
MONTROSE       CLOUDY    50  25  37 SE7       30.00R
CORTEZ         CLEAR     52  17  25 S9        30.05R
PAGE, AZ       CLEAR     64  22  20 W6        29.98R
GRAND CANYON   MOCLDY    40  18  41 SW5       30.11R
KINGMAN        CLEAR     57  23  26 SW10      29.97S
FLAGSTAFF      PTCLDY    49  15  25 SW13G21   30.13S

$$

REGIONAL REPORTS    NEVADA/IDAHO/WYOMING

CITY           SKY/WX    TMP DP  RH WIND       PRES   REMARKS
LAS VEGAS, NV  PTCLDY    70  32  24 SW8       29.86R
ELY            PTCLDY    39  37  92 CALM      30.04R
ELKO           PTCLDY    45  40  82 NW5       30.01R
POCATELLO, ID  CLOUDY    49  43  80 S17       29.92F
BURLEY         MOCLDY    51  42  71 SW16      29.90R
EVANSTON, WY   CLOUDY    38  32  79 S6        30.01F WCI  33
ROCK SPRINGS   CLOUDY    38  35  89 S3        30.01F
KEMMERER         N/A     37  36  93 CALM      30.02S

$$




USA.gov is the U.S. government's official web portal to all federal, state and local government web resources and services.